     2              OBSERVATION DATA    GPS                 RINEX VERSION / TYPE
teqc 1997Sep10 19971030 21:30:08UTC                         PGM / RUN BY / DATE
                                                            COMMENT
BIT 2 OF LLI FLAGS DATA COLLECTED UNDER A-S CONDITION       COMMENT
BIT 2 OF LLI FLAGS DATA COLLECTED UNDER A-S CONDITION       COMMENT
Original Marker Name: 55474.MONU                            COMMENT
Campaign Name: NGS Imperial Valley 1990                     COMMENT
4-Character Station Name: MONU                              COMMENT
6-Character Antenna Code: TI4100                            COMMENT
Vertical Measurement Point: PAE                             COMMENT
Vertical Offset to Rinex Ref. Point: 0.0000                 COMMENT
Radial Measurement Point: RRP                               COMMENT
Radial Offset to Rinex Ref. Point: 0.0000                   COMMENT
Antenna Height from Field Measurement: 1.3730 m             COMMENT
Original XYZ: -2386275.4875 -4802342.8295 3444875.2024      COMMENT
New XYZ position is based on association with SCEC monument COMMENT
E1C8W5H0+0011. Position of that monument is believed to be  COMMENT
valid to within 1 m horizontally; vertical accuracy         COMMENT
should be no worse than 3-times this value.                 COMMENT
                                                            COMMENT
Revised Rinex header created by UCSD GPS archive for        COMMENT
GSAC on 10-Apr-1999 (1999:100) 06:34:02 GMT                 COMMENT
For assistance contact dagnew@ucsd.edu or hjohnson@ucsd.edu COMMENT
                                                            COMMENT
MONUMENT PEAK NCMN 1983                                     MARKER NAME
05 NATIONAL GEODETIC SURVEY                                 OBSERVER / AGENCY
60111 TI 4100 1.9                                           REC # / TYPE / VERS
4053 TI 4100                                                ANT # / TYPE
 -2386290.0000 -4802346.0000  3444884.0000                  APPROX POSITION XYZ
        1.3730        0.0000        0.0000                  ANTENNA: DELTA H/E/N
     1     1     0                                          WAVELENGTH FACT L1/2
     4    P1    P2    L1    L2                              # / TYPES OF OBSERV
    15                                                      INTERVAL
  1990     3     2     4    21   59.000000                  TIME OF FIRST OBS
  1990     3     2     4    49   44.000000                  TIME OF LAST OBS
     0                                                      # OF SATELLITES
                                                            END OF HEADER
 90  3  2  4 21 59.0800000  0  4G 6G 9G11G13
  20512000.454    20512004.976     1002236.989 8  -1030938.523 8
  21801066.668    21801072.120      631589.427 9   -828606.201 7
  20784295.354    20784297.364      914464.125 8  -1027315.680 7
  23389034.907    23389045.767      461382.214 7  -1433949.239 7
 90  3  2  4 22 14.0800000  0  4G 6G 9G11G13
  20510527.115    20510532.643      994494.220 8  -1036971.859 7
  21793787.410    21793792.246      593338.930 8   -858411.737 7
  20781500.082    20781504.080      899779.106 8  -1038758.544 7
  23379126.560    23379137.706      409302.994 8  -1474530.360 8
 90  3  2  4 22 29.0800000  0  4G 6G 9G11G13
  20509077.548    20509080.988      986864.222 8  -1042917.274 8
  21786519.572    21786524.207      555145.952 8   -888172.454 7
  20778731.648    20778737.050      885228.366 7  -1050096.773 7
  23369228.276    23369238.535      357290.282 8  -1515059.628 7
 90  3  2  4 22 44.0800000  0  4G 6G 9G11G13
  20507646.562    20507648.992      979347.434 9  -1048774.487 8
  21779263.237    21779268.474      517010.600 8   -917888.264 8
  20775988.204    20775992.593      870812.043 8  -1061330.253 6
  23359342.235    23359353.908      305344.291 7  -1555536.935 7
 90  3  2  4 22 59.0800000  0  4G 6G 9G11G13
  20506237.801    20506241.170      971944.010 9  -1054543.375 8
  21772017.406    21772021.299      478933.531 8   -947558.659 8
  20773269.210    20773275.819      856530.017 7  -1072459.078 7
  23349472.839    23349482.119      253465.368 7  -1595961.953 7
 90  3  2  4 23 14.0800000  0  4G 6G 9G11G13
  20504850.521    20504852.507      964654.201 8  -1060223.729 9
  21764783.107    21764787.043      440914.868 9   -977183.538 8
  20770577.463    20770583.881      842382.278 7  -1083483.273 8
  23339611.647    23339623.173      201653.784 8  -1636334.512 8
 90  3  2  4 23 29.0800000  0  4G 6G 9G11G13
  20503483.800    20503488.305      957478.296 8  -1065815.332 8
  21757559.685    21757563.549      402955.052 8  -1006762.576 7
  20767911.354    20767917.277      828368.807 7  -1094402.839 8
  23329764.190    23329775.300      149909.797 7  -1676654.418 8
 90  3  2  4 23 44.0800000  0  4G 6G 9G11G13
  20502138.274    20502144.991      950416.512 8  -1071318.018 8
  21750347.452    21750352.130      365054.318 8  -1036295.575 8
  20765271.219    20765275.690      814489.605 7  -1105217.784 7
  23319929.997    23319942.825       98233.459 7  -1716921.595 7
 90  3  2  4 23 59.0800000  0  4G 6G 9G11G13
  20500817.326    20500820.686      943469.094 8  -1076731.567 7
  21743146.236    21743149.126      327213.150 7  -1065782.137 7
  20762654.621    20762659.329      800744.718 8  -1115928.073 7
  23310110.359    23310120.724       46625.388 7  -1757135.587 8
 90  3  2  4 24 14.0800000  0  4G 6G 9G11G13
  20499518.660    20499520.482      936636.280 8  -1082055.819 7
  21735956.353    21735961.363      289431.772 9  -1095222.128 8
  20760064.914    20760069.342      787134.031 7  -1126533.768 6
  23300302.043    23300313.753       -4914.319 7  -1797296.308 6
 90  3  2  4 24 29.0800000  0  4G 6G 9G11G13
  20498239.874    20498241.787      929918.365 9  -1087290.542 7
  21728779.121    21728781.796      251710.422 9  -1124615.351 7
  20757500.745    20757504.207      773657.740 8  -1137034.773 7
  23290508.124    23290518.419      -56385.337 8  -1837403.498 7
 90  3  2  4 24 44.0800000  0  4G 6G 9G11G13
  20496982.636    20496985.051      923315.576 8  -1092435.550 7
  21721612.305    21721616.983      214049.644 8  -1153961.368 8
  20754961.580    20754966.172      760315.772 8  -1147431.099 6
  23280725.367    23280737.865     -107787.401 9  -1877456.989 6
 90  3  2  4 24 59.0800000  0  4G 6G 9G11G13
  20495747.098    20495750.111      916828.113 8  -1097490.714 7
  21714456.220    21714461.516      176449.792 8  -1183259.908 7
  20752447.627    20752452.953      747108.090 7  -1157722.767 7
  23270956.831    23270969.737     -159120.289 7  -1917456.557 7
 90  3  2  4 25 14.0800000  0  4G 6G 9G11G13
  20494535.253    20494539.365      910456.306 8  -1102455.740 7
  21707313.587    21707317.508      138911.140 8  -1212510.768 8
  20749959.484    20749963.896      734034.724 7  -1167909.792 6
  23261202.299    23261213.880     -210383.758 7  -1957402.023 7
 90  3  2  4 25 29.0800000  0  4G 6G 9G11G13
  20493344.568    20493348.432      904200.390 7  -1107330.483 7
  21700182.058    21700186.709      101433.935 8  -1241713.737 8
  20747498.448    20747501.927      721095.645 7  -1177992.163 7
  23251460.593    23251469.879     -261577.542 8  -1997293.177 7
 90  3  2  4 25 44.0800000  0  4G 6G 9G11G13
  20492177.439    20492181.267      898060.590 7  -1112114.752 8
  21693061.261    21693065.840       64018.518 9  -1270868.572 8
  20745060.350    20745064.435      708290.875 7  -1187969.869 6
  23241732.231    23241742.690     -312701.221 8  -2037129.721 7
 90  3  2  4 25 59.0800000  0  4G 6G 9G11G13
  20491031.216    20491035.070      892037.112 8  -1116808.350 8
  21685953.141    21685957.862       26665.396 8  -1299974.836 8
  20742649.724    20742655.429      695620.258 8  -1197843.071 6
  23232017.924    23232028.615     -363754.343 8  -2076911.299 7
 90  3  2  4 26 14.0800000  0  4G 6G 9G11G13
  20489907.251    20489909.854      886130.162 8  -1121411.142 8
  21678857.069    21678861.591      -10625.294 9  -1329032.475 8
  20740264.493    20740269.169      683083.787 8  -1207611.720 7
  23222316.168    23222324.917     -414736.680 9  -2116637.707 7
 90  3  2  4 26 29.0800000  0  4G 6G 9G11G13
  20488803.511    20488807.674      880340.092 9  -1125922.879 6
  21671772.732    21671776.166      -47853.306 8  -1358041.251 7
  20737904.795    20737909.070      670681.540 8  -1217275.785 7
  23212628.832    23212635.791     -465648.162 8  -2156308.899 7
 90  3  2  4 26 44.0800000  0  4G 6G 9G11G13
  20487725.012    20487729.635      874667.049 8  -1130343.426 7
  21664700.843    21664705.092      -85017.989 8  -1387000.725 7
  20735569.176    20735574.243      658413.505 7  -1226835.278 6
  23202951.902    23202962.507     -516488.618 8  -2195924.751 7
 90  3  2  4 26 59.0800000  0  4G 6G 9G11G13
  20486668.553    20486672.810      869111.270 8  -1134672.594 8
  21657641.117    21657643.722     -122119.151 9  -1415910.655 8
  20733262.600    20733264.381      646279.645 8  -1236290.210 6
  23193290.509    23193299.881     -567257.525 7  -2235484.867 6
 90  3  2  4 27 14.0800000  0  4G 6G 9G11G13
  20485632.918    20485637.909      863673.062 9  -1138910.143 8
  21650592.209    21650596.660     -159156.561 9  -1444770.939 8
  20730977.308    20730979.498      634279.855 7  -1245640.669 6
  23183642.816    23183651.994     -617954.872 8  -2274989.207 7
 90  3  2  4 27 29.0800000  0  4G 6G 9G11G13
  20484620.198    20484624.464      858352.530 8  -1143055.985 7
  21643557.267    21643561.517     -196129.671 9  -1473581.115 7
  20728718.792    20728721.923      622414.029 7  -1254886.763 7
  23174008.109    23174019.061     -668580.325 8  -2314437.548 7
 90  3  2  4 27 44.0800000  0  4G 6G 9G11G13
  20483630.269    20483632.616      853150.004 8  -1147109.895 8
  21636531.540    21636537.392     -233038.392 8  -1502341.112 8
  20726485.421    20726490.779      610682.276 7  -1264028.380 7
  23164388.755    23164400.558     -719133.582 8  -2353829.605 6
 90  3  2  4 27 59.0800000  0  4G 6G 9G11G13
  20482661.265    20482667.310      848065.709 8  -1151071.677 7
  21629522.382    21629525.644     -269882.381 9  -1531050.664 7
  20724276.410    20724286.568      599084.604 7  -1273065.498 7
  23154782.622    23154794.025     -769614.375 8  -2393165.210 7
 90  3  2  4 28 14.0800000  0  4G 6G 9G11G13
  20481715.510    20481722.648      843099.847 8  -1154941.185 8
  21622521.782    21622527.822     -306661.053 8  -1559709.346 7
  20722096.370    20722102.426      587620.931 7  -1281998.196 7
  23145190.197    23145200.119     -820022.409 7  -2432444.114 6
 90  3  2  4 28 29.0800000  0  4G 6G 9G11G13
  20480793.816    20480799.348      838252.662 7  -1158718.200 7
  21615536.608    21615540.986     -343374.277 8  -1588317.020 7
  20719940.692    20719945.670      576291.359 7  -1290826.409 7
  23135611.281    23135622.040     -870357.548 8  -2471666.225 6
 90  3  2  4 28 44.0800000  0  4G 6G 9G11G13
  20479896.535    20479899.115      833524.341 8  -1162402.559 7
  21608562.508    21608567.931     -380021.531 9  -1616873.276 8
  20717812.354    20717816.052      565095.838 8  -1299550.179 7
  23126046.121    23126056.960     -920619.464 7  -2510831.267 7
 90  3  2  4 28 59.0800000  0  4G 6G 9G11G13
  20479017.557    20479021.871      828915.221 8  -1165994.064 7
  21601601.057    21601606.623     -416602.455 9  -1645377.850 8
  20715707.208    20715710.345      554034.140 8  -1308169.679 6
  23116494.836    23116506.727     -970807.929 7  -2549939.102 8
 90  3  2  4 29 14.0800000  0  4G 6G 9G11G13
  20478162.587    20478166.777      824425.447 8  -1169492.571 7
  21594654.145    21594658.551     -453116.856 8  -1673830.606 7
  20713627.759    20713632.496      543106.278 9  -1316684.857 7
  23106960.960    23106970.888    -1020922.556 8  -2588989.373 6
 90  3  2  4 29 29.0800000  0  4G 6G 9G11G13
  20477331.312    20477334.310      820055.360 7  -1172897.819 7
  21587718.223    21587720.683     -489564.463 8  -1702231.267 7
  20711573.154    20711578.709      532312.403 8  -1325095.654 7
  23097437.419    23097448.716    -1070962.761 8  -2627981.668 8
 90  3  2  4 29 44.0800000  0  4G 6G 9G11G13
  20476524.793    20476524.862      815804.708 8  -1176209.994 7
  21580795.406    21580798.997     -525945.287 9  -1730579.938 8
  20709546.094    20709550.614      521652.029 8  -1333402.417 7
  23087930.148    23087939.521    -1120929.026 8  -2666916.337 7
 90  3  2  4 29 59.0800000  0  4G 6G 9G11G13
  20475737.781    20475739.289      811674.137 8  -1179428.616 7
  21573885.842    21573888.502     -562258.428 9  -1758875.841 7
  20707542.871    20707544.567      511125.369 8  -1341604.995 7
  23078436.773    23078445.430    -1170820.468 8  -2705792.722 8
 90  3  2  4 30 14.0800000  0  4G 6G 9G11G13
  20474973.339    20474977.720      807663.747 8  -1182553.608 7
  21566987.265    21566990.056     -598503.726 8  -1787118.909 7
  20705563.452    20705567.567      500732.419 7  -1349703.382 6
  23068956.926    23068966.026    -1220637.202 7  -2744610.888 7
 90  3  2  4 30 29.0800000  0  4G 6G 9G11G13
  20474234.290    20474235.814      803773.971 8  -1185584.586 7
  21560103.600    21560106.233     -634680.769 9  -1815308.771 7
  20703611.668    20703616.593      490473.258 7  -1357697.524 7
  23059493.535    23059499.938    -1270379.034 7  -2783370.674 7
 90  3  2  4 30 44.0800000  0  4G 6G 9G11G13
  20473518.441    20473518.077      800004.897 8  -1188521.522 7
  21553232.067    21553236.648     -670789.120 8  -1843445.127 7
  20701683.390    20701688.540      480347.763 8  -1365587.499 6
  23050039.902    23050048.773    -1320045.414 7  -2822071.683 7
 90  3  2  4 30 59.0800000  0  4G 6G 9G11G13
  20472822.869    20472825.942      796356.808 8  -1191364.203 7
  21546374.332    21546375.992     -706828.771 8  -1871527.929 7
  20699781.885    20699787.979      470355.870 7  -1373373.369 7
  23040602.440    23040611.803    -1369636.327 7  -2860713.857 8
 90  3  2  4 31 14.0800000  0  4G 6G 9G11G13
  20472151.585    20472153.845      792829.892 9  -1194112.432 8
  21539528.670    21539532.677     -742798.782 9  -1899556.482 7
  20697906.512    20697911.258      460497.472 7  -1381055.191 7
  23031181.111    23031189.602    -1419151.385 8  -2899296.942 7
 90  3  2  4 31 29.0800000  0  4G 6G 9G11G13
  20471504.286    20471507.976      789424.406 7  -1196766.062 8
  21532696.261    21532700.724     -778699.140 8  -1927530.754 7
  20696056.593    20696062.729      450772.675 7  -1388632.956 7
  23021771.751    23021780.644    -1468590.213 7  -2937820.617 7
 90  3  2  4 31 44.0800000  0  4G 6G 9G11G13
  20470879.534    20470883.228      786140.543 8  -1199324.891 8
  21525878.963    21525881.452     -814529.715 7  -1955450.650 7
  20694229.834    20694237.646      441181.335 7  -1396106.687 7
  23012378.075    23012389.679    -1517952.614 7  -2976284.754 7
 90  3  2  4 31 59.0800000  0  4G 6G 9G11G13
  20470277.433    20470281.504      782978.503 8  -1201788.812 8
  21519073.024    21519077.401     -850289.974 9  -1983315.763 7
  20692429.789    20692436.066      431723.430 7  -1403476.475 7
  23002999.480    23003010.883    -1567238.493 7  -3014689.251 8
 90  3  2  4 32 14.0800000  0  4G 6G 9G11G13
  20469699.130    20469702.142      779938.551 9  -1204157.602 7
  21512282.224    21512285.572     -885979.486 8  -2011125.730 8
  20690656.587    20690662.600      422398.931 7  -1410742.302 6
  22993635.030    22993646.067    -1616447.483 8  -3053033.844 8
 90  3  2  4 32 29.0800000  0  4G 6G 9G11G13
  20469144.227    20469146.136      777020.799 9  -1206431.145 8
  21505504.305    21505508.568     -921597.960 8  -2038880.344 7
  20688908.241    20688914.067      413207.762 7  -1417904.221 7
  22984286.189    22984297.944    -1665579.361 9  -3091318.355 8
 90  3  2  4 32 44.0800000  0  4G 6G 9G11G13
  20468610.452    20468614.784      774225.428 8  -1208609.353 7
  21498739.089    21498742.008     -957145.397 8  -2066579.614 8
  20687184.845    20687190.203      404149.811 8  -1424962.346 7
  22974950.558    22974963.465    -1714633.846 8  -3129542.566 7
 90  3  2  4 32 59.0800000  0  4G 6G 9G11G13
  20468103.325    20468107.274      771552.827 9  -1210691.892 7
  21491989.387    21491992.377     -992621.169 9  -2094223.032 7
  20685486.965    20685491.455      395225.050 7  -1431916.720 8
  22965629.808    22965642.943    -1763610.545 8  -3167706.171 8
 90  3  2  4 33 14.0800000  0  4G 6G 9G11G13
  20467619.098    20467619.904      769003.125 8  -1212678.654 7
  21485251.159    21485255.453    -1028024.982 8  -2121810.400 7
  20683813.128    20683818.594      386433.358 8  -1438767.360 7
  22956324.076    22956338.306    -1812509.380 6  -3205809.086 9
 90  3  2  4 33 29.0800000  0  4G 6G 9G11G13
  20467157.953    20467160.004      766576.545 8  -1214569.463 7
  21478529.159    21478531.220    -1063356.130 7  -2149341.107 7
  20682165.554    20682170.844      377774.773 7  -1445514.312 8
  22947033.248    22947048.099    -1861330.110 7  -3243851.137 9
 90  3  2  4 33 44.0800000  0  4G 6G 9G11G13
  20466718.083    20466719.571      764273.322 8  -1216364.168 8
  21471819.407    21471821.811    -1098614.788 8  -2176815.368 7
  20680542.488    20680547.717      369249.230 7  -1452157.571 6
  22937757.742    22937772.725    -1910072.464 7  -3281832.111 8
 90  3  2  4 33 59.0800000  0  4G 6G 9G11G13
  20466302.498    20466304.930      762093.630 8  -1218062.604 8
  21465123.308    21465127.930    -1133800.503 8  -2204232.765 7
  20678946.259    20678951.806      360856.685 7  -1458697.199 8
  22928498.867    22928511.607    -1958736.303 8  -3319751.921 7
 90  3  2  4 34 14.0800000  0  4G 6G 9G11G13
  20465912.357    20465914.404      760037.624 9  -1219664.674 7
  21458441.343    21458444.520    -1168912.858 8  -2231593.006 7
  20677373.541    20677381.476      352596.982 7  -1465133.331 6
  22919254.063    22919266.066    -2007321.267 8  -3357610.259 8
 90  3  2  4 34 29.0800000  0  4G 6G 9G11G13
  20465544.582    20465546.551      758105.468 8  -1221170.233 8
  21451773.117    21451779.428    -1203951.518 8  -2258895.833 7
  20675827.121    20675834.238      344470.001 8  -1471466.011 7
  22910024.261    22910035.063    -2055827.226 9  -3395407.046 8
 90  3  2  4 34 44.0800000  0  4G 6G 9G11G13
  20465200.452    20465202.960      756297.401 9  -1222579.104 7
  21445120.174    21445124.810    -1238916.095 9  -2286140.907 7
  20674304.934    20674311.881      336475.761 7  -1477695.273 7
  22900808.669    22900820.287    -2104253.775 9  -3433141.964 7
 90  3  2  4 34 59.0800000  0  4G 6G 9G11G13
  20464879.635    20464882.112      754613.698 9  -1223891.080 7
  21438479.935    21438485.688    -1273806.225 8  -2313328.009 7
  20672809.922    20672814.820      328614.264 7  -1483821.111 7
  22891608.525    22891620.543    -2152600.621 8  -3470814.790 8
 90  3  2  4 35 14.0800000  0  4G 6G 9G11G13
  20464583.926    20464585.966      753054.563 9  -1225105.979 7
  21431854.551    21431859.015    -1308621.596 8  -2340456.824 8
  20671338.694    20671343.206      320885.276 7  -1489843.668 6
  22882423.068    22882434.837    -2200867.663 8  -3508425.417 8
 90  3  2  4 35 29.0800000  0  4G 6G 9G11G13
  20464311.616    20464314.042      751620.251 8  -1226223.614 8
  21425243.562    21425248.112    -1343361.899 9  -2367527.156 7
  20669892.971    20669898.272      313288.955 8  -1495762.858 7
  22873254.261    22873265.377    -2249054.500 8  -3545973.545 8
 90  3  2  4 35 44.0800000  0  4G 6G 9G11G13
  20464060.699    20464063.364      750310.960 9  -1227243.836 7
  21418647.626    21418651.848    -1378026.681 9  -2394538.636 8
  20668473.632    20668478.139      305825.212 7  -1501578.769 6
  22864099.583    22864111.767    -2297160.883 7  -3583458.983 7
 90  3  2  4 35 59.0800000  0  4G 6G 9G11G13
  20463835.442    20463837.920      749126.909 8  -1228166.484 7
  21412066.285    21412069.489    -1412615.660 8  -2421491.049 7
  20667078.368    20667084.349      298493.922 7  -1507291.459 6
  22854961.340    22854971.505    -2345186.657 8  -3620881.590 7
 90  3  2  4 36 14.0800000  0  4G 6G 9G11G13
  20463634.745    20463637.125      748068.150 7  -1228991.483 7
  21405498.822    21405503.317    -1447128.624 8  -2448384.247 7
  20665708.507    20665713.837      291294.951 7  -1512901.033 8
  22845837.799    22845848.729    -2393131.536 8  -3658241.191 7
 90  3  2  4 36 29.0800000  0  4G 6G 9G11G13
  20463457.265    20463461.369      747135.021 9  -1229718.617 8
  21398946.530    21398949.148    -1481565.021 9  -2475217.764 7
  20664363.948    20664369.215      284228.228 8  -1518407.546 8
  22836729.134    22836740.887    -2440995.442 9  -3695537.681 7
 90  3  2  4 36 44.0800000  0  4G 6G 9G11G13
  20463302.959    20463306.963      746327.668 9  -1230347.707 8
  21392408.403    21392409.948    -1515924.615 8  -2501991.439 7
  20663044.316    20663050.211      277293.663 8  -1523811.082 7
  22827637.094    22827646.386    -2488778.041 7  -3732770.807 7
 90  3  2  4 36 59.0800000  0  4G 6G 9G11G13
  20463174.260    20463176.538      745646.249 9  -1230878.677 7
  21385884.099    21385886.960    -1550206.992 9  -2528704.950 7
  20661749.689    20661753.311      270491.208 7  -1529111.678 8
  22818559.136    22818569.880    -2536479.106 7  -3769940.403 8
 90  3  2  4 37 14.0800000  0  4G 6G 9G11G13
  20463067.191    20463070.361      745091.047 8  -1231311.281 7
  21379375.391    21379378.338    -1584411.901 9  -2555358.106 8
  20660480.388    20660483.976      263820.890 8  -1534309.306 7
  22809496.517    22809508.957    -2584098.324 8  -3807046.222 8
 90  3  2  4 37 29.0800000  0  4G 6G 9G11G13
  20462983.722    20462990.585      744662.329 8  -1231645.346 8
  21372880.219    21372884.484    -1618538.820 9  -2581950.471 7
  20659237.375    20659242.600      257282.592 8  -1539404.080 7
  22800451.053    22800462.356    -2631635.547 7  -3844088.134 7
 90  3  2  4 37 44.0800000  0  4G 6G 9G11G13
  20462927.058    20462933.273      744360.066 7  -1231880.880 8
  21366400.817    21366404.968    -1652587.532 8  -2608481.907 8
  20658015.658    20658022.081      250876.197 7  -1544396.048 7
  22791420.016    22791431.360    -2679090.413 7  -3881065.892 8
 90  3  2  4 37 59.0800000  0  4G 6G 9G11G13
  20462896.133    20462899.636      744184.566 8  -1232017.609 8
  21359935.982    21359940.591    -1686557.791 8  -2634952.196 7
  20656822.399    20656828.594      244601.553 8  -1549285.382 8
  22782405.475    22782414.945    -2726462.878 7  -3917979.428 7
 90  3  2  4 38 14.0800000  0  4G 6G 9G11G13
  20462887.462    20462890.461      744135.926 8  -1232055.493 8
  21353487.660    21353491.638    -1720449.331 9  -2661361.164 7
  20655654.263    20655659.534      238458.522 7  -1554072.129 7
  22773408.011    22773415.809    -2773752.352 7  -3954828.305 7
 90  3  2  4 38 29.0800000  0  4G 6G 9G11G13
  20462900.632    20462904.703      744214.406 8  -1231994.339 8
  21347053.017    21347057.195    -1754261.587 8  -2687708.341 7
  20654509.065    20654514.154      232447.027 7  -1558756.404 6
  22764425.539    22764432.792    -2820959.034 7  -3991612.678 6
 90  3  2  4 38 44.0800000  0  4G 6G 9G11G13
  20462940.207    20462945.492      744420.411 8  -1231833.822 7
  21340633.799    21340637.948    -1787994.022 8  -2713993.328 7
  20653388.724    20653396.518      226567.197 7  -1563338.079 6
  22755458.521    22755465.457    -2868082.303 8  -4028332.043 8
 90  3  2  4 38 59.0800000  0  4G 6G 9G11G13
  20463003.208    20463008.756      744753.963 8  -1231573.906 8
  21334229.377    21334232.512    -1821646.444 8  -2740215.935 8
  20652295.151    20652303.339      220818.808 7  -1567817.343 7
  22746506.862    22746513.426    -2915121.958 8  -4064986.277 8
 90  3  2  4 39 14.0800000  0  4G 6G 9G11G13
  20463090.314    20463094.963      745215.187 7  -1231214.491 7
  21327841.409    21327843.873    -1855218.615 9  -2766376.051 7
  20651226.243    20651232.886      215201.696 7  -1572194.291 7
  22737571.937    22737578.059    -2962077.967 7  -4101575.310 7
 90  3  2  4 39 29.0800000  0  4G 6G 9G11G13
  20463201.208    20463206.038      745804.407 9  -1230755.358 6
  21321468.240    21321472.848    -1888710.141 8  -2792473.294 7
  20650184.226    20650189.479      209715.777 7  -1576469.012 6
  22728650.255    22728658.511    -3008949.850 7  -4138098.816 7
 90  3  2  4 39 44.0800000  0  4G 6G 9G11G13
  20463339.607    20463343.776      746521.701 7  -1230196.421 7
  21315109.120    21315113.427    -1922120.591 8  -2818507.387 7
  20649165.876    20649169.673      204361.048 7  -1580641.516 7
  22719745.294    22719755.883    -3055737.570 7  -4174556.728 7
 90  3  2  4 39 59.0800000  0  4G 6G 9G11G13
  20463500.900    20463504.390      747367.311 8  -1229537.485 7
  21308767.544    21308771.351    -1955450.014 8  -2844478.328 7
  20648172.601    20648175.630      199137.363 7  -1584711.909 7
  22710860.375    22710869.104    -3102440.934 9  -4210948.879 7
 90  3  2  4 40 14.0800000  0  4G 6G 9G11G13
  20463685.103    20463689.727      748341.410 7  -1228778.440 6
  21302440.964    21302444.913    -1988697.415 8  -2870385.374 7
  20647202.180    20647207.472      194044.666 7  -1588680.235 8
  22701989.750    22701995.930    -3149059.737 8  -4247275.142 7
 90  3  2  4 40 29.0800000  0  4G 6G 9G11G13
  20463894.245    20463900.038      749444.147 8  -1227919.174 7
  21296129.981    21296134.302    -2021862.850 8  -2896228.540 8
  20646258.113    20646263.266      189082.778 7  -1592546.619 7
  22693134.077    22693140.657    -3195593.623 9  -4283535.257 7
 90  3  2  4 40 44.0800000  0  4G 6G 9G11G13
  20464129.402    20464133.832      750675.681 7  -1226959.539 8
  21289834.223    21289838.486    -2054946.055 8  -2922007.644 7
  20645338.511    20645344.915      184251.734 6  -1596311.059 7
  22684295.610    22684300.732    -3242042.330 8  -4319728.994 7
 90  3  2  4 40 59.0800000  0  4G 6G 9G11G13
  20464388.234    20464392.263      752036.262 8  -1225899.326 8
  21283554.634    21283559.570    -2087946.411 8  -2947722.184 7
  20644444.247    20644449.740      179551.559 7  -1599973.500 7
  22675472.742    22675478.601    -3288405.587 9  -4355856.154 6
 90  3  2  4 41 14.0800000  0  4G 6G 9G11G13
  20464671.585    20464675.620      753526.066 7  -1224738.435 7
  21277290.128    21277294.133    -2120863.652 9  -2973371.951 6
  20643575.647    20643580.697      174981.996 8  -1603534.202 7
  22666666.201    22666671.793    -3334683.248 8  -4391916.591 7
 90  3  2  4 41 29.0800000  0  4G 6G 9G11G13
  20464981.361    20464982.434      755145.283 8  -1223476.693 6
  21271042.505    21271046.799    -2153697.399 8  -2998956.677 8
  20642729.435    20642733.797      170542.948 7  -1606993.175 6
  22657875.663    22657882.859    -3380875.161 9  -4427910.245 8
 90  3  2  4 41 44.0800000  0  4G 6G 9G11G13
  20465314.212    20465314.806      756893.975 7  -1222114.068 6
  21264809.909    21264814.259    -2186447.510 8  -3024476.212 7
  20641908.655    20641916.163      166234.279 7  -1610350.585 6
  22649101.967    22649108.778    -3426981.084 8  -4463836.849 7
 90  3  2  4 41 59.0800000  0  4G 6G 9G11G13
  20465670.576    20465673.156      758772.473 8  -1220650.284 7
  21258594.797    21258598.631    -2219113.509 8  -3049930.203 8
  20641113.978    20641119.051      162055.799 7  -1613606.517 7
  22640346.273    22640351.997    -3473000.685 8  -4499696.207 7
 90  3  2  4 42 14.0800000  0  4G 6G 9G11G13
  20466052.252    20466055.230      760780.783 7  -1219085.369 7
  21252393.422    21252397.986    -2251695.021 8  -3075318.372 8
  20640342.732    20640347.883      158007.437 7  -1616761.047 7
  22631606.641    22631611.077    -3518933.755 8  -4535488.140 7
 90  3  2  4 42 29.0800000  0  4G 6G 9G11G13
  20466460.035    20466464.725      762919.183 7  -1217419.091 6
  21246210.106    21246212.252    -2284191.665 8  -3100640.390 7
  20639598.037    20639602.655      154089.078 7  -1619814.288 7
  22622880.997    22622887.241    -3564780.164 9  -4571212.551 7
 90  3  2  4 42 44.0800000  0  4G 6G 9G11G13
  20466892.485    20466894.547      765187.809 9  -1215651.315 7
  21240041.813    21240045.135    -2316603.191 7  -3125896.103 8
  20638878.245    20638883.928      150300.728 7  -1622766.235 8
  22614173.782    22614177.666    -3610539.895 8  -4606869.405 7
 90  3  2  4 42 59.0800000  0  4G 6G 9G11G13
  20467349.504    20467349.493      767586.777 8  -1213781.957 6
  21233890.722    21233893.669    -2348929.269 8  -3151085.212 6
  20638182.176    20638187.204      146642.204 7  -1625617.027 7
  22605481.126    22605486.318    -3656212.587 8  -4642458.454 7
 90  3  2  4 43 14.0800000  0  4G 6G 9G11G13
  20467830.472    20467831.715      770116.400 7  -1211810.832 7
  21227754.883    21227758.703    -2381169.599 8  -3176207.526 7
  20637511.233    20637514.734      143113.392 8  -1628366.723 7
  22596807.160    22596811.681    -3701797.947 9  -4677979.429 7
 90  3  2  4 43 29.0800000  0  4G 6G 9G11G13
  20468336.006    20468338.994      772776.830 8  -1209737.760 7
  21221636.845    21221639.951    -2413323.515 7  -3201262.490 7
  20636863.738    20636868.106      139714.354 8  -1631015.334 8
  22588149.305    22588154.004    -3747295.603 9  -4713432.084 7
 90  3  2  4 43 44.0800000  0  4G 6G 9G11G13
  20468866.723    20468869.823      775568.181 8  -1207562.667 7
  21215535.693    21215537.380    -2445390.985 8  -3226250.102 7
  20636240.802    20636245.971      136444.708 8  -1633563.107 7
  22579506.717    22579513.398    -3792705.441 7  -4748816.319 7
 90  3  2  4 43 59.0800000  0  4G 6G 9G11G13
  20469421.334    20469424.835      778490.619 7  -1205285.438 7
  21209448.819    21209452.154    -2477371.510 8  -3251169.968 7
  20635644.489    20635646.959      133304.447 7  -1636010.055 7
  22570883.125    22570889.349    -3838027.083 8  -4784131.823 6
 90  3  2  4 44 14.0800000  0  4G 6G 9G11G13
  20470003.153    20470006.602      781544.314 8  -1202905.930 7
  21203378.890    21203383.297    -2509264.642 8  -3276021.751 7
  20635070.268    20635075.849      130293.411 8  -1638356.303 7
  22562274.552    22562281.933    -3883260.342 8  -4819378.468 7
 90  3  2  4 44 29.0800000  0  4G 6G 9G11G13
  20470610.880    20470613.925      784729.488 9  -1200423.976 7
  21197327.045    21197331.124    -2541070.217 8  -3300805.289 8
  20634522.229    20634526.354      127411.501 7  -1640601.950 8
  22553683.255    22553691.460    -3928405.172 8  -4854556.185 7
 90  3  2  4 44 44.0800000  0  4G 6G 9G11G13
  20471241.447    20471245.676      788046.142 9  -1197839.566 7
  21191292.002    21191297.024    -2572787.944 8  -3325520.394 7
  20633997.543    20634003.403      124658.562 8  -1642747.099 8
  22545107.964    22545117.680    -3973461.351 8  -4889664.830 7
 90  3  2  4 44 59.0800000  0  4G 6G 9G11G13
  20471895.414    20471901.821      791494.597 8  -1195152.455 7
  21185272.811    21185276.446    -2604417.428 7  -3350166.712 7
  20633499.078    20633506.673      122034.582 8  -1644791.748 8
  22536551.325    22536558.858    -4018428.522 8  -4924704.098 7
 90  3  2  4 45 14.0800000  0  4G 6G 9G11G13
  20472577.210    20472582.242      795074.838 8  -1192362.671 7
  21179270.506    21179273.925    -2635958.228 9  -3374743.953 7
  20633022.538    20633029.812      119539.372 8  -1646736.032 7
  22528012.130    22528020.462    -4063306.703 8  -4959674.049 6
 90  3  2  4 45 29.0800000  0  4G 6G 9G11G13
  20473284.042    20473288.500      798786.898 7  -1189470.142 7
  21173284.885    21173289.135    -2667410.252 9  -3399251.996 7
  20632573.267    20632579.332      117172.518 8  -1648580.312 8
  22519490.678    22519496.442    -4108095.947 9  -4994574.689 7
 90  3  2  4 45 44.0800000  0  4G 6G 9G11G13
  20474016.247    20474021.063      802631.162 8  -1186474.603 8
  21167318.898    21167320.673    -2698773.099 8  -3423690.542 6
  20632147.804    20632152.240      114934.183 8  -1650324.450 7
  22510983.712    22510989.184    -4152795.831 8  -5029405.719 6
 90  3  2  4 45 59.0800000  0  4G 6G 9G11G13
  20474772.110    20474778.099      806607.799 8  -1183375.927 8
  21161366.989    21161370.238    -2730046.114 9  -3448059.090 7
  20631746.697    20631751.730      112824.422 7  -1651968.419 8
  22502494.856    22502502.740    -4197405.884 8  -5064166.759 6
 90  3  2  4 46 14.0800000  0  4G 6G 9G11G13
  20475555.579    20475560.219      810716.986 8  -1180173.961 7
  21155433.426    21155435.829    -2761229.068 9  -3472357.467 7
  20631368.775    20631375.288      110843.054 8  -1653512.342 8
  22494021.131    22494029.229    -4241925.936 7  -5098857.654 6
 90  3  2  4 46 29.0800000  0  4G 6G 9G11G13
  20476362.699    20476365.886      814958.968 9  -1176868.508 7
  21149517.377    21149519.479    -2792321.573 8  -3496585.365 7
  20631016.158    20631021.701      108989.822 8  -1654956.400 7
  22485565.057    22485575.581    -4286355.732 7  -5133478.220 6
 90  3  2  4 46 44.0800000  0  4G 6G 9G11G13
  20477195.151    20477197.148      819333.692 8  -1173459.611 7
  21143617.295    21143620.014    -2823323.470 9  -3520742.677 7
  20630688.856    20630693.435      107264.583 8  -1656300.724 7
  22477127.735    22477137.786    -4330695.019 8  -5168028.263 6
 90  3  2  4 46 59.0800000  0  4G 6G 9G11G13
  20478051.060    20478056.266      823841.462 8  -1169947.061 7
  21137735.217    21137737.349    -2854234.297 8  -3544829.002 6
  20630385.488    20630389.776      105667.171 7  -1657545.442 7
  22468707.213    22468717.664    -4374944.032 8  -5202507.935 7
 90  3  2  4 47 14.0800000  0  4G 6G 9G11G13
  20478935.698    20478940.160      828482.390 7  -1166330.768 8
  21131869.650    21131874.287    -2885053.615 7  -3568844.050 8
  20630104.411    20630108.844      104197.522 8  -1658690.616 7
  22460304.004    22460314.490    -4419102.106 7  -5236916.769 6
 90  3  2  4 47 29.0800000  0  4G 6G 9G11G13
  20479844.723    20479848.225      833256.575 7  -1162610.626 8
  21126022.056    21126027.235    -2915781.087 9  -3592787.515 8
  20629849.556    20629854.266      102855.471 9  -1659736.367 8
  22451920.492    22451928.812    -4463168.991 9  -5271254.543 7
 90  3  2  4 47 44.0800000  0  4G 6G 9G11G13
  20480777.953    20480781.683      838164.246 8  -1158786.441 8
  21120193.179    21120196.356    -2946416.619 8  -3616659.333 8
  20629617.926    20629623.241      101641.043 8  -1660682.651 7
  22443552.828    22443560.745    -4507144.569 8  -5305521.170 7
 90  3  2  4 47 59.0800000  0  4G 6G 9G11G13
  20481737.386    20481740.417      843205.558 9  -1154858.133 7
  21114380.698    21114385.106    -2976959.566 9  -3640459.007 8
  20629411.603    20629414.351      100554.109 7  -1661529.597 8
  22435202.655    22435209.881    -4551028.587 8  -5339716.445 7
 90  3  2  4 48 14.0800000  0  4G 6G 9G11G13
  20482723.271    20482725.214      848380.544 8  -1150825.666 8
  21108586.220    21108587.407    -3007409.607 8  -3664186.285 7
  20629228.038    20629233.720       99594.431 8  -1662277.368 7
  22426869.348    22426876.615    -4594820.885 9  -5373840.244 6
 90  3  2  4 48 29.0800000  0  4G 6G 9G11G13
  20483734.581    20483736.551      853689.475 8  -1146688.835 8
  21102809.171    21102813.249    -3037766.624 8  -3687841.054 7
  20629071.059    20629074.521       98761.826 8  -1662926.154 7
  22418553.747    22418559.420    -4638521.447 8  -5407892.539 7
 90  3  2  4 48 44.0800000  0  4G 6G 9G11G13
  20484766.654    20484772.081      859132.442 8  -1142447.567 7
  21097051.381    21097054.257    -3068030.009 9  -3711422.898 7
  20628936.330    20628941.093       98056.259 8  -1663475.948 7
  22410254.459    22410260.574    -4682130.117 8  -5441873.253 7
 90  3  2  4 48 59.0800000  0  4G 6G 9G11G13
  20485828.733    20485832.722      864709.567 8  -1138101.760 8
  21091308.673    21091312.366    -3098199.746 8  -3734931.763 6
  20628826.416    20628830.547       97477.532 8  -1663926.880 7
  22401973.973    22401979.545    -4725646.503 9  -5475782.063 7
 90  3  2  4 49 14.0800000  0  4G 6G 9G11G13
  20486917.630    20486919.797      870420.939 8  -1133651.322 7
  21085586.342    21085590.378    -3128275.127 9  -3758367.099 7
  20628739.161    20628744.786       97025.513 8  -1664279.094 7
  22393710.780    22393714.484    -4769070.545 9  -5509618.898 7
 90  3  2  4 49 29.0800000  0  4G 6G 9G11G13
  20488029.977    20488032.937      876266.840 8  -1129096.062 8
  21079881.640    21079885.274    -3158255.966 8  -3781728.768 7
  20628676.531    20628682.211       96700.047 8  -1664532.678 7
  22385465.802    22385468.756    -4812402.010 9  -5543383.617 6
